Location: Northcutt
(34.7304°N, 84.4305°W)
Time: 10:56:49
(UTC+00:00)

Altair - All Passes

Search period start: 05 October 2022 00:00
Search period end: 15 October 2022 00:00
Orbit: 1501 x 1682 km, 47.2° (Epoch: 05 October)

Date Brightness Start Highest point End Pass type
(mag) Time Alt. Az. Time Alt. Az. Time Alt. Az.
05 Oct - 07:32:15 10° S 07:40:00 29° SE 07:47:57 10° ENE visible
05 Oct - 09:34:19 10° SW 09:43:56 86° NW 09:53:58 10° NE visible
05 Oct - 11:40:34 10° W 11:49:49 44° NNW 11:59:22 10° ENE daylight
05 Oct - 13:47:20 10° WNW 13:56:48 44° NNE 14:06:22 10° E daylight
05 Oct - 15:52:37 10° NW 16:02:50 83° NE 16:13:00 10° ESE daylight
05 Oct - 17:58:24 10° WNW 18:07:01 33° SW 18:15:36 10° S daylight
06 Oct - 07:07:34 10° S 07:14:55 26° SE 07:22:28 10° ENE visible
06 Oct - 09:09:09 10° SW 09:18:43 88° SE 09:28:43 10° NE visible
06 Oct - 11:15:12 10° W 11:24:27 45° NNW 11:34:02 10° ENE daylight
06 Oct - 13:22:04 10° WNW 13:31:25 43° N 13:40:57 10° E daylight
06 Oct - 15:27:24 10° NW 15:37:35 78° NE 15:47:45 10° ESE daylight
06 Oct - 17:32:58 10° WNW 17:41:53 36° SW 17:50:46 10° SSE daylight
07 Oct - 06:42:56 10° S 06:49:51 23° SE 06:56:55 10° ENE visible
07 Oct - 08:44:01 10° SW 08:53:31 83° SE 09:03:28 10° NE visible
07 Oct - 10:49:51 10° W 10:59:07 47° NNW 11:08:43 10° NE visible
07 Oct - 12:56:46 10° WNW 13:06:03 42° N 13:15:31 10° ENE daylight
07 Oct - 15:02:10 10° NW 15:12:18 74° NNE 15:22:28 10° ESE daylight
07 Oct - 17:07:36 10° WNW 17:16:46 40° SW 17:25:53 10° SSE daylight
08 Oct - 06:18:24 10° SSE 06:24:47 21° SE 06:31:18 10° E visible
08 Oct - 08:18:54 10° SW 08:28:20 78° SE 08:38:13 10° ENE visible
08 Oct - 10:24:30 10° W 10:33:47 49° NNW 10:43:25 10° NE visible
08 Oct - 12:31:27 10° WNW 12:40:40 41° N 12:50:05 10° ENE daylight
08 Oct - 14:36:57 10° NW 14:47:02 70° NNE 14:57:10 10° ESE daylight
08 Oct - 16:42:15 10° WNW 16:51:37 44° SW 17:00:58 10° SSE daylight
09 Oct - 05:53:58 10° SSE 05:59:44 18° ESE 06:05:36 10° E visible
09 Oct - 07:53:49 10° SW 08:03:10 72° SE 08:12:57 10° ENE visible
09 Oct - 09:59:10 10° W 10:08:28 51° NNW 10:18:07 10° NE visible
09 Oct - 12:06:08 10° WNW 12:15:17 40° N 12:24:39 10° ENE daylight
09 Oct - 14:11:44 10° NW 14:21:45 66° NNE 14:31:51 10° ESE daylight
09 Oct - 16:16:57 10° WNW 16:26:28 48° SW 16:36:00 10° SSE daylight
10 Oct - 05:29:41 10° SSE 05:34:41 16° ESE 05:39:45 10° E visible
10 Oct - 07:28:45 10° SW 07:38:01 67° SE 07:47:40 10° ENE visible
10 Oct - 09:33:50 10° W 09:43:09 53° NNW 09:52:51 10° NE visible
10 Oct - 11:40:49 10° WNW 11:49:54 40° N 11:59:15 10° ENE daylight
10 Oct - 13:46:31 10° NW 13:56:27 62° NNE 14:06:30 10° ESE daylight
10 Oct - 15:51:39 10° WNW 16:01:18 53° SW 16:11:00 10° SSE daylight
10 Oct - 18:02:37 10° WSW 18:04:34 11° WSW 18:06:32 10° SW daylight
11 Oct - 05:05:38 10° SSE 05:09:38 13° ESE 05:13:41 10° E night (unlit)
11 Oct - 07:03:43 10° SSW 07:12:52 61° SE 07:22:24 10° ENE visible
11 Oct - 09:08:32 10° W 09:17:51 55° NNW 09:27:34 10° NE visible
11 Oct - 11:15:29 10° WNW 11:24:32 40° N 11:33:50 10° ENE visible
11 Oct - 13:21:18 10° NW 13:31:09 59° NNE 13:41:10 10° ESE daylight
11 Oct - 15:26:22 10° WNW 15:36:08 57° SW 15:45:58 10° SSE daylight
11 Oct - 17:35:39 10° W 17:39:30 13° WSW 17:43:22 10° SW daylight
12 Oct - 04:42:06 10° SE 04:44:36 11° ESE 04:47:07 10° ESE night (unlit)
12 Oct - 06:38:43 10° SSW 06:47:44 56° SE 06:57:07 10° ENE visible
12 Oct - 08:43:14 10° WSW 08:52:34 58° NNW 09:02:18 10° NE visible
12 Oct - 10:50:09 10° WNW 10:59:09 40° N 11:08:25 10° ENE visible
12 Oct - 12:56:05 10° NW 13:05:50 56° NNE 13:15:47 10° ESE daylight
12 Oct - 15:01:05 10° WNW 15:10:57 62° SW 15:20:54 10° SE daylight
12 Oct - 17:09:26 10° W 17:14:25 15° WSW 17:19:26 10° SSW daylight
13 Oct - 06:13:43 10° SSW 06:22:36 51° SE 06:31:49 10° ENE visible
13 Oct - 08:17:57 10° WSW 08:27:17 61° NNW 08:37:02 10° NE visible
13 Oct - 10:24:49 10° WNW 10:33:46 40° N 10:43:01 10° ENE visible
13 Oct - 12:30:51 10° NW 12:40:31 54° NNE 12:50:24 10° E daylight
13 Oct - 14:35:50 10° WNW 14:45:46 67° SW 14:55:48 10° SE daylight
13 Oct - 16:43:29 10° W 16:49:20 17° WSW 16:55:12 10° SSW daylight
14 Oct - 05:48:47 10° SSW 05:57:29 47° SE 06:06:30 10° ENE visible
14 Oct - 07:52:40 10° WSW 08:02:01 65° NNW 08:11:47 10° NE visible
14 Oct - 09:59:28 10° WNW 10:08:24 40° N 10:17:38 10° ENE visible
14 Oct - 12:05:37 10° NW 12:15:11 51° NNE 12:25:00 10° E daylight
14 Oct - 14:10:36 10° WNW 14:20:34 72° SW 14:30:40 10° SE daylight
14 Oct - 16:17:43 10° W 16:24:14 20° SW 16:30:48 10° SSW daylight
